This demonstration page uses our WeatherBlox Daily Observations layout. Learn more.

Left ArrowRight Arrow

44.89941, -97.11507

Hourly Observations for August 20, 2022

Temp ( °F °C ) Dew Point ( °F °C ) Humidity (%) Winds ( mph kmh ) Pressure ( in mb ) Visibility ( mi km ) Precip ( " mm )
12:38 am 00:38 Partly Cloudy 59 15 59 15 100 100 N 7 11 29.92 1013 10 16 0.00 0.00
12:46 am 00:46 Mostly Cloudy 60 15.6 59 15 96 96 N 6 9 29.91 1013 10 16 0.00 0.00
12:53 am 00:53 Mostly Cloudy 60 15.6 60 15.6 100 100 N 7 11 29.93 1013 10 16 0.00 0.00
1:53 am 01:53 Mostly Cloudy 62 16.7 61 16.1 96 96 NNE 8 13 29.94 1014 10 16 0.00 0.00
2:37 am 02:37 Partly Cloudy 61 16.1 60 15.6 97 97 N 8 13 29.93 1013 10 16 0.00 0.00
2:53 am 02:53 Mostly Clear 60 15.6 59 15 96 96 N 7 11 29.95 1014 10 16 0.00 0.00
3:53 am 03:53 Mostly Cloudy 59 15 59 15 100 100 N 8 13 29.97 1015 10 16 0.00 0.00
4:28 am 04:28 Partly Cloudy 59 15 59 15 100 100 NNW 6 9 29.97 1015 9 14 0.00 0.00
4:53 am 04:53 Clear with Mist and Fog 59 15 58 14.4 96 96 NNW 7 11 29.98 1015 5 8 0.00 0.00
5:14 am 05:14 Clear with Mist and Fog 57 13.9 57 13.9 100 100 N 5 7 29.98 1015 2 2 0.00 0.00
5:18 am 05:18 Clear with Mist and Fog 57 13.9 57 13.9 100 100 N 6 9 29.98 1015 1 1 0.00 0.00
5:31 am 05:31 Mostly Clear with Mist and Fog 57 13.9 57 13.9 100 100 NNW 5 7 29.98 1015 3 5 0.00 0.00
5:43 am 05:43 Mostly Clear with Mist and Fog 59 15 58 14.4 96 96 NNW 8 13 29.98 1015 1 1 0.00 0.00
5:53 am 05:53 Mostly Clear with Fog 59 15 59 15 100 100 NNW 8 13 29.98 1015 0 0 0.00 0.00
6:53 am 06:53 Partly Cloudy with Fog 61 16.1 61 16.1 100 100 N 8 13 30.01 1016 0 0 0.00 0.00
7:06 am 07:06 Partly Cloudy with Fog 61 16.1 61 16.1 100 100 N 8 13 29.99 1016 0 0 0.00 0.00
7:14 am 07:14 Partly Cloudy with Fog 61 16.1 61 16.1 100 100 N 7 11 29.99 1016 0 0 0.00 0.00
7:35 am 07:35 Partly Cloudy with Mist and Fog 62 16.7 62 16.7 100 100 N 8 13 30.00 1016 1 1 0.00 0.00
7:41 am 07:41 Cloudy with Mist and Fog 63 17.2 62 16.7 97 97 N 8 13 29.99 1016 2 2 0.00 0.00
7:47 am 07:47 Cloudy with Mist and Fog 63 17 63 17 100 100 N 8 13 29.99 1016 3 5 0.00 0.00
7:53 am 07:53 Cloudy with Mist and Fog 63 17.2 63 17.2 100 100 N 7 11 30.02 1017 6 10 0.00 0.00
8:18 am 08:18 Cloudy 63 17.2 63 17.2 100 100 N 7 11 30.00 1016 10 16 0.00 0.00
8:53 am 08:53 Cloudy 65 18.3 63 17.2 93 93 N 9 15 30.04 1017 10 16 0.00 0.00
9:53 am 09:53 Cloudy 66 18.9 64 17.8 93 93 N 9 15 30.05 1018 10 16 0.00 0.00
10:30 am 10:30 Cloudy 67 19.4 63 17.2 87 87 N 9 15 30.01 1016 10 16 0.00 0.00
10:53 am 10:53 Mostly Cloudy 69 20.6 63 17.2 81 81 N 9 15 30.05 1018 10 16 0.00 0.00
11:04 am 11:04 Mostly Cloudy 70 21.1 65 18.3 84 84 NW 12 19 30.00 1016 10 16 0.00 0.00
11:53 am 11:53 Partly Cloudy 73 22.8 64 17.8 73 73 N 7 11 30.05 1018 10 16 0.00 0.00
12:53 pm 12:53 Mostly Cloudy 74 23.3 64 17.8 71 71 N 7 11 30.04 1017 10 16 0.00 0.00
1:18 pm 13:18 Cloudy 75 23.9 65 18.3 71 71 ENE 10 17 29.98 1015 10 16 0.00 0.00
1:46 pm 13:46 Partly Cloudy 75 23.9 64 17.8 69 69 NE 12 19 29.99 1016 10 16 0.00 0.00
1:53 pm 13:53 Mostly Sunny 76 24.4 65 18.3 69 69 NE 14 22 30.04 1017 10 16 0.00 0.00
2:53 pm 14:53 Partly Cloudy 73 22.8 65 18.3 76 76 ENE 13 20 30.06 1018 10 16 0.00 0.00
3:53 pm 15:53 Mostly Sunny 74 23.3 63 17.2 69 69 NE 9 15 30.06 1018 10 16 0.00 0.00
4:53 pm 16:53 Sunny 76 24.4 63 17.2 64 64 VRB 5 7 30.04 1017 10 16 0.00 0.00
5:53 pm 17:53 Partly Cloudy 75 23.9 63 17.2 66 66 NE 8 13 30.04 1017 10 16 0.00 0.00
6:53 pm 18:53 Sunny 73 22.8 63 17.2 71 71 ENE 7 11 30.04 1017 10 16 0.00 0.00
7:53 pm 19:53 Sunny 71 21.7 63 17.2 76 76 ENE 7 11 30.04 1017 10 16 0.00 0.00
8:53 pm 20:53 Clear 70 21.1 63 17.2 78 78 Calm 30.05 1018 10 16 0.00 0.00
9:53 pm 21:53 Clear 66 18.9 63 17.2 90 90 NE 3 6 30.07 1018 10 16 0.00 0.00
10:53 pm 22:53 Clear 64 17.8 62 16.7 93 93 NNW 3 6 30.08 1019 10 16 0.00 0.00
11:53 pm 23:53 Clear with Mist and Fog 61 16.1 61 16.1 100 100 Calm 30.09 1019 5 8 0.00 0.00

Powered by AerisWeather